Location: Byszew
(52.1813°N, 19.2693°E)
Time: 01:08:07
(UTC+00:00)

Envisat - Pass Details

Date: 05 February 2022
Orbit: 764 x 765 km, 98.2° (Epoch: 22 May)

Event Time Altitude Azimuth Distance (km) Brightness Sun altitude
Rises 03:03:19 0° 19° (NNE) 3,245 6.7 -29.8°
Reaches altitude 10° 03:05:48 10° 28° (NNE) 2,314 5.9 -29.5°
Maximum altitude 03:10:33 38° 96° (E) 1,153 4.3 -28.7°
Drops below altitude 10° 03:15:16 10° 165° (SSE) 2,299 5.5 -28.0°
Sets 03:17:43 0° 173° (S) 3,221 6.2 -27.7°
